THY1YM EDDH-LTFM

Flight info

Callsign THY1YM
Flight time N/A
Altitude 35000
Route AMLUH2G/33 AMLUH M852 DENIX DCT ZUCKA DCT OMELO DCT ODLIV DCT MAVOR DCT UVERA/N0447F370 DCT BIVBU DCT BUVAK DCT RIXEN
Aircraft A321/M-SDE1E2E3FGHIRWYLB1/LB1

Departure

Time 2026-05-04 14:49
Airport Hamburg Helmut Schmidt Airport (EDDH)

Arrival

Time N/A
Airport İstanbul Airport (LTFM)
Time Latitude Longitude Altitude Speed Heading
2026-05-04 14:04 53.63415 10.00354 49 ft 0 kts 86°
2026-05-04 14:40 53.63413 10.00317 45 ft 4 kts 86°
2026-05-04 14:40 53.63411 10.00280 46 ft 4 kts 90°
2026-05-04 14:40 53.63416 10.00239 45 ft 4 kts 130°
2026-05-04 14:41 53.63434 10.00220 43 ft 1 kts 175°
2026-05-04 14:41 53.63435 10.00220 44 ft 0 kts 175°
2026-05-04 14:44 53.63429 10.00221 48 ft 3 kts 175°
2026-05-04 14:44 53.63407 10.00224 46 ft 1 kts 175°
2026-05-04 14:44 53.63372 10.00228 48 ft 9 kts 175°
2026-05-04 14:45 53.63303 10.00237 48 ft 10 kts 175°
2026-05-04 14:45 53.63227 10.00248 48 ft 12 kts 175°
2026-05-04 14:45 53.63142 10.00260 48 ft 13 kts 176°
2026-05-04 14:45 53.63052 10.00243 48 ft 14 kts 208°
2026-05-04 14:46 53.62968 10.00156 48 ft 15 kts 213°
2026-05-04 14:46 53.62882 10.00056 48 ft 13 kts 221°
2026-05-04 14:46 53.62848 9.99967 48 ft 3 kts 242°
2026-05-04 14:46 53.62845 9.99959 45 ft 0 kts 242°
2026-05-04 14:47 53.62844 9.99955 46 ft 2 kts 242°
2026-05-04 14:47 53.62826 9.99898 47 ft 9 kts 242°
2026-05-04 14:47 53.62826 9.99789 44 ft 11 kts 316°
2026-05-04 14:48 53.62853 9.99759 45 ft 0 kts 331°
2026-05-04 14:48 53.62866 9.99747 45 ft 7 kts 331°
2026-05-04 14:48 53.63036 9.99598 45 ft 62 kts 333°
2026-05-04 14:49 53.63626 9.99087 48 ft 126 kts 333°
2026-05-04 14:49 53.64553 9.98293 156 ft 164 kts 332°
2026-05-04 14:49 53.65564 9.97447 778 ft 166 kts 332°
2026-05-04 14:49 53.66605 9.96586 1396 ft 172 kts 332°
2026-05-04 14:50 53.67764 9.95602 1627 ft 197 kts 331°
2026-05-04 14:50 53.69071 9.94692 2057 ft 210 kts 346°
2026-05-04 14:50 53.70553 9.94672 2719 ft 215 kts
2026-05-04 14:50 53.72036 9.95257 3334 ft 225 kts 19°
2026-05-04 14:51 53.73283 9.96900 3918 ft 237 kts 55°
2026-05-04 14:51 53.73931 9.99452 4618 ft 238 kts 72°
2026-05-04 14:51 53.74208 10.02231 5217 ft 243 kts 93°
2026-05-04 14:51 53.73819 10.05025 5726 ft 253 kts 116°
2026-05-04 14:52 53.72884 10.07692 6020 ft 275 kts 124°
2026-05-04 14:52 53.71868 10.10508 6607 ft 285 kts 123°
2026-05-04 14:52 53.70870 10.13426 7317 ft 289 kts 122°
2026-05-04 14:52 53.69887 10.16367 8045 ft 292 kts 123°
2026-05-04 14:53 53.68630 10.19047 8773 ft 292 kts 140°
2026-05-04 14:53 53.66976 10.21018 9530 ft 290 kts 158°
2026-05-04 14:53 53.65081 10.22143 10221 ft 291 kts 169°
2026-05-04 14:53 53.63053 10.23054 10423 ft 314 kts 168°
2026-05-04 14:54 53.60862 10.24035 10579 ft 337 kts 168°
2026-05-04 14:54 53.58539 10.25083 10882 ft 352 kts 168°
2026-05-04 14:54 53.56153 10.26172 11459 ft 357 kts 168°
2026-05-04 14:54 53.53740 10.27275 12090 ft 362 kts 168°
2026-05-04 14:55 53.51298 10.28392 12747 ft 366 kts 168°
2026-05-04 14:55 53.48830 10.29521 13404 ft 370 kts 168°
2026-05-04 14:55 53.46335 10.30661 14032 ft 373 kts 168°
2026-05-04 14:55 53.43818 10.31813 14630 ft 376 kts 168°
2026-05-04 14:56 53.41279 10.32973 15247 ft 379 kts 168°
2026-05-04 14:56 53.38723 10.34134 15863 ft 382 kts 169°
2026-05-04 14:56 53.36154 10.35294 16508 ft 384 kts 169°
2026-05-04 14:56 53.33562 10.36454 17128 ft 387 kts 169°
2026-05-04 14:57 53.30954 10.37618 17753 ft 389 kts 169°
2026-05-04 14:57 53.28364 10.38777 18324 ft 392 kts 169°
2026-05-04 14:57 53.25727 10.39957 18857 ft 394 kts 169°
2026-05-04 14:57 53.23069 10.41141 19403 ft 397 kts 169°
2026-05-04 14:58 53.20389 10.42332 19955 ft 400 kts 170°
2026-05-04 14:58 53.17694 10.43527 20480 ft 402 kts 170°
2026-05-04 14:58 53.14979 10.44732 20989 ft 405 kts 170°
2026-05-04 14:58 53.13174 10.45533 21296 ft 407 kts 171°
2026-05-04 14:59 53.09480 10.46958 21965 ft 408 kts 174°
2026-05-04 14:59 53.06685 10.47852 22462 ft 410 kts 175°
2026-05-04 14:59 53.01032 10.49473 23426 ft 415 kts 176°
2026-05-04 15:00 52.98173 10.50288 23808 ft 418 kts 176°
2026-05-04 15:00 52.95306 10.51150 24199 ft 421 kts 173°
2026-05-04 15:00 52.92512 10.52837 24589 ft 436 kts 157°
2026-05-04 15:01 52.87898 10.59710 25319 ft 455 kts 138°
2026-05-04 15:01 52.85749 10.63581 25691 ft 458 kts 138°
2026-05-04 15:01 52.83597 10.67478 26037 ft 460 kts 138°
2026-05-04 15:01 52.81432 10.71397 26410 ft 462 kts 139°
2026-05-04 15:02 52.79251 10.75325 26774 ft 464 kts 139°
2026-05-04 15:02 52.77057 10.79252 27105 ft 467 kts 139°
2026-05-04 15:02 52.74846 10.83189 27440 ft 468 kts 139°
2026-05-04 15:02 52.72623 10.87140 27815 ft 470 kts 139°
2026-05-04 15:03 52.70397 10.91095 28165 ft 472 kts 139°
2026-05-04 15:03 52.68160 10.95072 28510 ft 474 kts 139°
2026-05-04 15:03 52.65908 10.99064 28857 ft 476 kts 139°
2026-05-04 15:03 52.63645 11.03064 29194 ft 479 kts 139°
2026-05-04 15:04 52.61371 11.07076 29624 ft 478 kts 139°
2026-05-04 15:04 52.59105 11.11073 30062 ft 477 kts 139°
2026-05-04 15:04 52.56869 11.15008 30437 ft 477 kts 139°
2026-05-04 15:04 52.54604 11.18991 30812 ft 476 kts 139°
2026-05-04 15:05 52.52344 11.22963 31182 ft 476 kts 139°
2026-05-04 15:05 52.50083 11.26925 31561 ft 475 kts 139°
2026-05-04 15:05 52.47819 11.30882 31942 ft 475 kts 139°
2026-05-04 15:05 52.45560 11.34824 32298 ft 474 kts 139°
2026-05-04 15:06 52.43301 11.38763 32683 ft 473 kts 139°
2026-05-04 15:06 52.41049 11.42683 33050 ft 473 kts 139°
2026-05-04 15:06 52.38794 11.46606 33409 ft 472 kts 139°
2026-05-04 15:07 52.35021 11.53157 33962 ft 472 kts 139°
2026-05-04 15:07 52.32784 11.57020 34255 ft 472 kts 139°
2026-05-04 15:07 52.30528 11.60911 34540 ft 472 kts 139°
2026-05-04 15:07 52.28272 11.64798 34833 ft 471 kts 139°
2026-05-04 15:08 52.26013 11.68681 34945 ft 471 kts 139°
2026-05-04 15:08 52.21505 11.76424 34979 ft 469 kts 139°
2026-05-04 15:09 52.16989 11.84119 34973 ft 469 kts 139°
2026-05-04 15:09 52.12481 11.91743 34975 ft 466 kts 139°
2026-05-04 15:10 52.05734 12.03116 34975 ft 465 kts 139°
2026-05-04 15:11 51.98982 12.14442 34982 ft 465 kts 139°
2026-05-04 15:11 51.94506 12.21925 34985 ft 465 kts 139°
2026-05-04 15:12 51.89990 12.29439 34968 ft 465 kts 139°
2026-05-04 15:12 51.85472 12.36943 34963 ft 465 kts 139°
2026-05-04 15:13 51.80960 12.44425 34979 ft 464 kts 139°
2026-05-04 15:13 51.76446 12.51871 34981 ft 464 kts 139°
2026-05-04 15:14 51.71926 12.59315 34984 ft 464 kts 139°
2026-05-04 15:14 51.67411 12.66738 34968 ft 464 kts 139°
2026-05-04 15:15 51.62890 12.74133 34974 ft 463 kts 139°
2026-05-04 15:15 51.58360 12.81516 34977 ft 463 kts 139°
2026-05-04 15:16 51.51573 12.92546 34962 ft 463 kts 139°
2026-05-04 15:17 51.44764 13.03580 34972 ft 464 kts 139°
2026-05-04 15:17 51.37930 13.14581 34955 ft 465 kts 140°
2026-05-04 15:18 51.33389 13.21871 34966 ft 465 kts 140°
2026-05-04 15:19 51.26517 13.32856 34968 ft 465 kts 140°
2026-05-04 15:19 51.19641 13.43784 34966 ft 465 kts 139°
2026-05-04 15:20 51.15054 13.51058 34969 ft 466 kts 139°
2026-05-04 15:20 51.10452 13.58332 34963 ft 466 kts 139°
2026-05-04 15:21 51.05844 13.65607 34967 ft 467 kts 140°
2026-05-04 15:22 50.98923 13.76473 34960 ft 467 kts 139°
2026-05-04 15:22 50.92026 13.87273 34977 ft 466 kts 140°
2026-05-04 15:23 50.87364 13.94515 34982 ft 466 kts 140°
2026-05-04 15:23 50.83012 14.02045 34980 ft 471 kts 128°
2026-05-04 15:24 50.75921 14.19555 34970 ft 473 kts 126°
2026-05-04 15:25 50.72366 14.28289 34974 ft 472 kts 126°
2026-05-04 15:26 50.67028 14.41346 34972 ft 472 kts 126°
2026-05-04 15:26 50.61689 14.54385 34980 ft 471 kts 126°
2026-05-04 15:27 50.56347 14.67314 34976 ft 471 kts 126°
2026-05-04 15:28 50.50975 14.80252 34976 ft 471 kts 126°
2026-05-04 15:29 50.44965 14.92319 34976 ft 466 kts 136°
2026-05-04 15:30 50.29470 15.18381 34963 ft 468 kts 136°
2026-05-04 15:31 50.22806 15.29526 34970 ft 468 kts 136°
2026-05-04 15:32 50.11672 15.47986 34968 ft 469 kts 136°
2026-05-04 15:34 50.00466 15.66458 34978 ft 469 kts 136°
2026-05-04 15:34 49.93736 15.77510 34976 ft 469 kts 136°
2026-05-04 15:35 49.86990 15.88518 34986 ft 469 kts 136°
2026-05-04 15:36 49.80234 15.99489 34992 ft 469 kts 136°
2026-05-04 15:36 49.75722 16.06793 34986 ft 469 kts 136°
2026-05-04 15:37 49.71207 16.14086 34983 ft 470 kts 136°
2026-05-04 15:37 49.66710 16.21318 34985 ft 470 kts 136°
2026-05-04 15:38 49.62176 16.28586 34984 ft 470 kts 136°
2026-05-04 15:38 49.57642 16.35850 34985 ft 470 kts 136°
2026-05-04 15:39 49.53106 16.43110 34986 ft 470 kts 135°
2026-05-04 15:40 49.46290 16.53933 34985 ft 469 kts 136°
2026-05-04 15:40 49.41736 16.61126 34979 ft 470 kts 136°
2026-05-04 15:41 49.37180 16.68334 34979 ft 470 kts 136°
2026-05-04 15:41 49.32631 16.75522 34984 ft 469 kts 135°
2026-05-04 15:42 49.28104 16.82636 34992 ft 469 kts 135°
2026-05-04 15:42 49.23553 16.89764 34992 ft 468 kts 135°
2026-05-04 15:43 49.18995 16.96885 34995 ft 468 kts 135°
2026-05-04 15:43 49.14438 17.03998 34995 ft 468 kts 135°
2026-05-04 15:44 49.09882 17.11072 35005 ft 467 kts 136°
2026-05-04 15:44 49.05310 17.18144 35019 ft 467 kts 136°
2026-05-04 15:45 49.00750 17.25187 35018 ft 467 kts 135°
2026-05-04 15:45 48.96194 17.32219 35010 ft 466 kts 136°
2026-05-04 15:46 48.91652 17.39197 35008 ft 466 kts 136°
2026-05-04 15:46 48.87082 17.46199 35013 ft 466 kts 136°
2026-05-04 15:47 48.82516 17.53190 35002 ft 467 kts 134°
2026-05-04 15:47 48.78386 17.60787 35001 ft 467 kts 129°
2026-05-04 15:48 48.74301 17.68459 35000 ft 468 kts 129°
2026-05-04 15:48 48.68163 17.79955 35020 ft 467 kts 130°
2026-05-04 15:49 48.64056 17.87589 35012 ft 467 kts 130°
2026-05-04 15:49 48.59950 17.95206 35014 ft 467 kts 130°
2026-05-04 15:50 48.55871 18.02773 35003 ft 467 kts 130°
2026-05-04 15:50 48.51759 18.10375 35014 ft 467 kts 130°
2026-05-04 15:51 48.47647 18.17946 35026 ft 466 kts 130°
2026-05-04 15:51 48.43533 18.25495 35030 ft 466 kts 130°
2026-05-04 15:52 48.39409 18.33048 35029 ft 466 kts 130°
2026-05-04 15:52 48.35289 18.40576 35039 ft 466 kts 130°
2026-05-04 15:53 48.31166 18.48083 35034 ft 466 kts 130°
2026-05-04 15:53 48.27032 18.55582 35039 ft 466 kts 130°
2026-05-04 15:54 48.22923 18.63011 35033 ft 465 kts 130°
2026-05-04 15:54 48.18783 18.70486 35027 ft 466 kts 130°
2026-05-04 15:55 48.14640 18.77951 35041 ft 465 kts 129°
2026-05-04 15:55 48.10508 18.85387 35047 ft 465 kts 129°
2026-05-04 15:56 48.06363 18.92817 35044 ft 465 kts 130°
2026-05-04 15:56 48.02913 18.98972 35049 ft 465 kts 130°
2026-05-04 15:57 48.00685 19.02455 35050 ft 464 kts 141°
2026-05-04 15:57 47.97940 19.04927 35046 ft 462 kts 159°
2026-05-04 15:57 47.94841 19.06132 35039 ft 460 kts 176°
2026-05-04 15:57 47.91667 19.05969 35027 ft 456 kts 193°
2026-05-04 15:58 47.88682 19.04466 35022 ft 452 kts 210°
2026-05-04 15:58 47.86153 19.01775 35017 ft 447 kts 227°
2026-05-04 15:58 47.84283 18.98131 35009 ft 441 kts 244°
2026-05-04 15:58 47.83238 18.93880 35009 ft 437 kts 262°
2026-05-04 15:59 47.83101 18.89411 35001 ft 432 kts 279°
2026-05-04 15:59 47.83639 18.85012 34909 ft 435 kts 279°
2026-05-04 15:59 47.83831 18.80504 34656 ft 439 kts 270°
2026-05-04 15:59 47.83584 18.75967 34416 ft 441 kts 264°
2026-05-04 16:00 47.83104 18.71447 34169 ft 443 kts 261°
2026-05-04 16:00 47.82569 18.66936 33916 ft 443 kts 262°
2026-05-04 16:00 47.82084 18.62411 33560 ft 443 kts 264°
2026-05-04 16:00 47.81683 18.57842 32639 ft 448 kts 265°
2026-05-04 16:01 47.81368 18.53220 31802 ft 450 kts 266°
2026-05-04 16:01 47.81107 18.48567 30938 ft 453 kts 267°
2026-05-04 16:01 47.80867 18.43871 29963 ft 458 kts 267°
2026-05-04 16:01 47.80622 18.39132 28906 ft 461 kts 266°
2026-05-04 16:02 47.80361 18.34442 27975 ft 461 kts 266°
2026-05-04 16:02 47.80069 18.29617 26833 ft 464 kts 265°
2026-05-04 16:02 47.79448 18.20051 24632 ft 470 kts 264°
2026-05-04 16:03 47.79126 18.15251 23972 ft 463 kts 264°
2026-05-04 16:03 47.78811 18.10515 23139 ft 459 kts 264°
2026-05-04 16:03 47.78503 18.05827 22400 ft 452 kts 264°
2026-05-04 16:03 47.78200 18.01216 21683 ft 444 kts 264°
2026-05-04 16:04 47.77901 17.96688 20973 ft 437 kts 264°
2026-05-04 16:04 47.77309 17.87815 19580 ft 425 kts 263°
2026-05-04 16:04 47.77016 17.83469 18894 ft 420 kts 263°
2026-05-04 16:05 47.76722 17.79176 18231 ft 415 kts 263°
2026-05-04 16:05 47.76431 17.74938 17537 ft 409 kts 263°
2026-05-04 16:05 47.75858 17.66642 16308 ft 399 kts 263°
2026-05-04 16:06 47.75577 17.62562 15738 ft 395 kts 262°
2026-05-04 16:06 47.74835 17.51908 14274 ft 384 kts 262°
2026-05-04 16:07 47.74469 17.46682 13791 ft 377 kts 262°
2026-05-04 16:07 47.73625 17.34772 13373 ft 388 kts 262°
2026-05-04 16:08 47.73341 17.30777 13209 ft 387 kts 262°
2026-05-04 16:08 47.72490 17.18924 12720 ft 384 kts 262°
2026-05-04 16:09 47.71938 17.11045 12404 ft 384 kts 265°
2026-05-04 16:09 47.72892 17.03274 12086 ft 388 kts 292°
2026-05-04 16:10 47.75893 16.96581 11771 ft 391 kts 304°
2026-05-04 16:11 47.80746 16.86906 11270 ft 387 kts 304°
2026-05-04 16:11 47.82339 16.83709 11102 ft 378 kts 304°
2026-05-04 16:12 47.86739 16.74914 10727 ft 329 kts 304°
2026-05-04 16:12 47.90591 16.67193 10257 ft 297 kts 305°
2026-05-04 16:13 47.93523 16.62915 10061 ft 295 kts 313°
2026-05-04 16:13 47.96497 16.58700 9815 ft 294 kts 313°
2026-05-04 16:14 47.99454 16.54500 9572 ft 293 kts 313°
2026-05-04 16:14 48.02263 16.50144 9329 ft 287 kts 298°
2026-05-04 16:15 48.05284 16.42568 8982 ft 284 kts 297°
2026-05-04 16:16 48.07326 16.37489 8749 ft 284 kts 298°
2026-05-04 16:16 48.10340 16.29925 8404 ft 282 kts 298°
2026-05-04 16:17 48.12331 16.24875 8171 ft 281 kts 296°
2026-05-04 16:18 48.14884 16.17099 7821 ft 279 kts 293°
2026-05-04 16:18 48.15709 16.14474 7696 ft 278 kts 293°
2026-05-04 16:19 48.18191 16.06669 7345 ft 269 kts 291°
2026-05-04 16:19 48.19779 16.01746 7126 ft 259 kts 292°
2026-05-04 16:20 48.22422 15.94668 6777 ft 265 kts 321°
2026-05-04 16:20 48.25910 15.93966 6519 ft 265 kts 24°
2026-05-04 16:21 48.29250 15.99451 6136 ft 239 kts 91°
2026-05-04 16:22 48.28268 16.04044 5931 ft 232 kts 121°
2026-05-04 16:22 48.26075 16.10513 5623 ft 232 kts 120°
2026-05-04 16:23 48.24043 16.16878 5345 ft 214 kts 120°
2026-05-04 16:24 48.21469 16.24895 4745 ft 210 kts 121°
2026-05-04 16:25 48.20296 16.28554 4203 ft 181 kts 122°
2026-05-04 16:26 48.18267 16.34842 3320 ft 164 kts 122°
2026-05-04 16:26 48.16770 16.39477 2654 ft 164 kts 122°
2026-05-04 16:27 48.15779 16.42541 2203 ft 163 kts 122°
2026-05-04 16:28 48.14402 16.46802 1575 ft 141 kts 123°
2026-05-04 16:28 48.13142 16.50677 1022 ft 136 kts 121°
2026-05-04 16:29 48.11682 16.55173 620 ft 73 kts 116°
2026-05-04 16:30 48.11510 16.56054 608 ft 3 kts 84°
2026-05-04 16:31 48.11540 16.56134 621 ft 6 kts 33°
2026-05-04 16:31 48.11683 16.56103 624 ft 9 kts 302°
2026-05-04 16:32 48.11761 16.56119 616 ft 0 kts 25°